Home > Weather > Sheffield > Past weeks

Flag for United Kingdom Past Weather in Sheffield, England, United Kingdom — Yesterday and Last 2 Weeks

Now
66 °F

Partly sunny.


Feels Like: 66 °F
Forecast: 49 / 66 °F
Wind: 15 mph from Northwest

Location: Manchester Airport

Current Time: Jul 27, 2016 at 2:33:26 PM

Latest Report: Jul 27, 2016 at 1:50 PM


Visibility: N/A

Pressure: 29.98 "Hg

Humidity: 64%

Dew Point: 54 °F

Location of SheffieldLocation

Past Weather in Sheffield — Graph

°F

Sheffield Temperature Yesterday

Maximum temperature yesterday: 66 °F (at 1:50 PM)
Minimum temperature yesterday: 57 °F (at 12:20 AM)
Average temperature yesterday: 62 °F

High & Low Weather Summary for the Past Weeks

 TemperatureHumidityPressure
High86 °F (Jul 19, 3:20 PM)100% (Jul 13, 6:50 AM)30.30 "Hg (Jul 13, 6:50 AM)
Low48 °F (Jul 13, 12:20 AM)43% (Jul 19, 2:50 PM)29.68 "Hg (Jul 20, 6:20 AM)
Average63 °F80%30.07 "Hg
* Reported Jul 12 12:20 PM — Jul 27 12:50 PM, Sheffield, Weather by CustomWeather, © 2016

Note: Actual official high and low records may vary slightly from our data, if they occured in-between our weather recording intervals... More about our weather records

Advertising

Sheffield Weather History for the Previous 24 Hours

Scroll right to see more
 ConditionsComfort  
Time TempWeatherWind HumidityBarometerVisibility
12:50 PM
Wed, Jul 27
64 °FScattered clouds.13 mph68%29.98 "HgN/A
12:20 PM64 °FScattered clouds.12 mph73%29.98 "HgN/A
11:50 AM64 °FScattered clouds.13 mph73%29.95 "HgN/A
11:20 AM63 °FScattered clouds.10 mph83%29.95 "HgN/A
10:50 AM64 °FScattered clouds.12 mph78%29.95 "HgN/A
10:20 AM63 °FScattered clouds.13 mph83%29.95 "HgN/A
9:50 AM63 °FScattered clouds.9 mph83%29.95 "HgN/A
9:20 AM63 °FScattered clouds.9 mph88%29.92 "HgN/A
8:50 AM61 °FBroken clouds.7 mph94%29.92 "HgN/A
8:20 AM61 °FBroken clouds.7 mph94%29.92 "HgN/A
7:50 AM61 °FScattered showers. Broken clouds.7 mph94%29.92 "HgN/A
7:20 AM61 °FScattered showers. Broken clouds.10 mph88%29.92 "HgN/A
6:50 AM61 °FScattered showers. Broken clouds.9 mph94%29.89 "HgN/A
6:20 AM61 °FDrizzle. Partly sunny.9 mph94%29.89 "Hg4 mi
5:50 AM61 °FPassing clouds.9 mph94%29.89 "Hg3 mi
5:20 AM61 °FPartly cloudy.10 mph94%29.89 "Hg3 mi
4:50 AM61 °FRain. Partly cloudy.12 mph94%29.86 "Hg4 mi
4:20 AM61 °FLight rain. Partly cloudy.12 mph94%29.89 "Hg4 mi
3:50 AM61 °FLight rain. Partly cloudy.12 mph94%29.89 "Hg5 mi
3:20 AM61 °FLight rain. Partly cloudy.13 mph94%29.89 "HgN/A
2:50 AM61 °FHeavy rain. Partly cloudy.12 mph94%29.89 "Hg2 mi
2:20 AM61 °FOvercast.12 mph94%29.92 "HgN/A
1:50 AM61 °FLight rain. Passing clouds.12 mph94%29.92 "HgN/A
1:20 AM61 °FRain. Passing clouds.10 mph94%29.92 "HgN/A
12:50 AM61 °FLight rain. Partly cloudy.13 mph94%29.95 "HgN/A
12:20 AM61 °FLight rain. Passing clouds.12 mph94%29.95 "HgN/A
11:50 PM
Tue, Jul 26
63 °FPassing clouds.12 mph83%29.98 "HgN/A
11:20 PM63 °FPassing clouds.12 mph88%29.98 "HgN/A
10:50 PM63 °FPartly cloudy.12 mph88%29.98 "HgN/A
10:20 PM63 °FPartly cloudy.12 mph88%30.01 "HgN/A
9:50 PM63 °FPartly sunny.9 mph83%30.01 "HgN/A
9:20 PM63 °FBroken clouds.8 mph83%30.01 "HgN/A
8:50 PM64 °FPartly sunny.9 mph78%30.01 "HgN/A
8:20 PM64 °FPartly sunny.9 mph73%30.04 "HgN/A
7:50 PM64 °FPassing clouds.10 mph78%30.04 "HgN/A
7:20 PM64 °FPartly sunny.12 mph78%30.04 "HgN/A
6:50 PM66 °FBroken clouds.10 mph68%30.04 "HgN/A
6:20 PM64 °FBroken clouds.7 mph73%30.07 "HgN/A
5:50 PM64 °FScattered clouds.7 mph73%30.07 "HgN/A
5:20 PM64 °FPartly sunny.12 mph68%30.07 "HgN/A
4:50 PM66 °FPartly sunny.12 mph68%30.07 "HgN/A
4:20 PM66 °FScattered clouds.13 mph68%30.07 "HgN/A
3:50 PM66 °FBroken clouds.15 mph68%30.07 "HgN/A
3:20 PM64 °FScattered clouds.10 mph73%30.09 "HgN/A
2:50 PM66 °FScattered clouds.9 mph73%30.09 "HgN/A
2:20 PM66 °FScattered clouds.13 mph73%30.09 "HgN/A
Weather by CustomWeather, © 2016

See weather overviewHow to use our weather pages